[[{"header":{"parameterUnit":"m.s-1","parameterCategory":1,"la1":30.2991,"la2":30.254,"lo1":-89.0895,"lo2":-89.0444,"dy":0.0017,"dx":0.0017,"nx":28,"ny":28,"refTime":"2023-09-17T09:00:00:Z","depth":0,"parameterNumber":2,"parameterNumberName":"U-component_of_WINDS"},"data":[0,0,0,0,0,0,0,0,0,0,0,0,0,0,0,0,0,0,0,0,0,0,0,0,0,0,0,0,0,0,0,0,0,0,0,0,0,0,0,0,0,0,0,0,0,0,0,0,0,0,0,0,0,0,0,0,0,0,-2.2789,-2.279,0,-2.2882,-2.2883,-2.2884,-2.2778,-2.2774,-2.277,-2.2767,-2.2863,-2.2869,-2.2876,0,0,0,0,0,0,0,0,0,0,0,0,0,-2.2524,-2.2529,-2.2789,-2.2791,-2.2792,-2.2881,-2.2883,-2.2884,-2.2779,-2.2774,-2.2769,-2.2765,-2.2861,-2.2869,-2.2876,0,0,0,0,0,0,0,0,0,0,0,0,0,-2.263,-2.2531,-2.2789,-2.275,-2.2747,-2.2881,-2.2883,-2.2884,-2.278,-2.2774,-2.2768,-2.2763,-2.2859,-2.2868,-2.2877,-2.3055,0,0,-2.2906,-2.291,0,0,0,0,0,0,0,0,-2.2624,-2.264,-2.2755,-2.2753,-2.275,-2.2812,-2.2824,-2.2942,-2.2782,-2.2768,-2.2766,-2.276,-2.2851,-2.2861,-2.2891,-2.3059,-2.3063,-2.2907,-2.2913,-2.2917,-2.2919,0,0,0,0,0,0,0,-2.2617,-2.2635,-2.2826,-2.2756,-2.2754,-2.2728,-2.2737,-2.2846,-2.2842,-2.2768,-2.2761,-2.2773,-2.2849,-2.2883,-2.2893,-2.3065,-2.2907,-2.2915,-2.2921,-2.2924,-2.3383,-2.3389,0,0,0,0,0,0,-2.2614,-2.263,-2.2823,-2.2829,-2.2671,-2.2738,-2.2748,-2.2799,-2.284,-2.2841,-2.2778,-2.2768,-2.2869,-2.2882,-2.2896,-2.3107,-2.2916,-2.2925,-2.2931,-2.3377,-2.3384,-2.3392,0,0,0,0,0,0,-2.2609,-2.2632,-2.2819,-2.2727,-2.2749,-2.2749,-2.2807,-2.2803,-2.2837,-2.2848,-2.2847,-2.2813,-2.2865,-2.2883,-2.3016,-2.3109,-2.293,-2.2938,-2.3369,-2.3379,-2.3388,-2.3531,0,0,0,0,0,0,-2.2601,-2.2631,-2.2698,-2.273,-2.2755,-2.2938,-2.2813,-2.281,-2.2853,-2.2841,-2.288,-2.2881,-2.2862,-2.3002,-2.3025,-2.3119,-2.2945,-2.3361,-2.3373,-2.3385,-2.3518,-2.3544,-2.3567,0,0,0,0,0,-2.2592,-2.2735,-2.2702,-2.2726,-2.2838,-2.2943,-2.2958,-2.2932,-2.2861,-2.2929,-2.2936,-2.288,-2.3095,-2.3017,-2.3042,-2.314,-2.3355,-2.337,-2.3384,-2.3507,-2.3539,-2.3566,0,0,0,0,0,0,-2.2715,-2.2738,-2.2702,-2.2859,-2.29,-2.2925,-2.301,-2.2967,-2.3029,-2.3015,-2.2981,-2.299,-2.3133,-2.3149,-2.3062,-2.3314,-2.3213,-2.3234,-2.3298,-2.3329,-2.3353,-2.3347,-2.2953,0,0,0,0,0,-2.276,-2.2843,-2.2859,-2.2996,-2.3018,-2.3011,-2.3056,-2.3032,-2.3073,-2.309,-2.3107,-2.315,-2.3226,-2.3278,-2.335,-2.3519,-2.3527,-2.3598,-2.3623,-2.3643,-2.3662,-2.3753,-2.3786,-2.344,-2.344,-2.3439,0,0,-2.2855,-2.2878,-2.2932,-2.3021,-2.305,-2.3137,-2.3026,-2.3123,-2.3188,-2.3105,-2.3232,-2.3246,-2.3291,-2.3444,-2.3512,-2.3462,-2.3759,-2.3662,-2.3678,-2.3686,-2.3772,-2.3805,-2.3834,-2.345,-2.3448,-2.3446,0,0,-2.3072,-2.3097,-2.3214,-2.3245,-2.329,-2.3284,-2.3313,-2.3345,-2.3351,-2.3477,-2.3417,-2.3493,-2.3627,-2.3662,-2.3697,-2.3927,-2.3878,-2.3951,-2.408,-2.417,-2.4197,-2.4221,-2.4304,-2.4335,-2.3969,-2.3969,-2.397,0,-2.3184,-2.3313,-2.328,-2.3382,-2.3423,-2.3351,-2.347,-2.3502,-2.3568,-2.3599,-2.3541,-2.3707,-2.3733,-2.3893,-2.3949,-2.3979,-2.4011,-2.3947,-2.4195,-2.4219,-2.4241,-2.432,-2.4352,-2.3978,-2.3977,-2.3976,-2.3975,0,-2.3449,-2.3539,-2.3628,-2.3694,-2.3745,-2.3855,-2.3839,-2.3895,-2.3867,-2.3867,-2.3997,-2.4025,-2.4101,-2.4137,-2.411,-2.4294,-2.4261,-2.42,-2.4099,-2.4283,-2.4357,-2.4387,-2.399,-2.3987,-2.3985,-2.3983,0,0,-2.3748,-2.3793,-2.3827,-2.3856,-2.39,-2.3969,-2.4075,-2.4149,-2.4198,-2.4246,-2.4335,-2.4449,-2.4393,-2.4433,-2.4409,-2.4488,-2.467,-2.4417,-2.4418,-2.4465,-2.4875,-2.4922,-2.4957,-2.4637,-2.4642,-2.4647,-2.4871,0,-2.3967,-2.4151,-2.4125,-2.4303,-2.4386,-2.4318,-2.4411,-2.4448,-2.4451,-2.4523,-2.4525,-2.4608,-2.4526,-2.455,-2.4625,-2.4632,-2.4752,-2.4615,-2.4721,-2.4725,-2.4714,-2.4995,-2.5045,-2.5256,-2.49,-2.4905,-2.4908,0,-2.4248,-2.4305,-2.4491,-2.4522,-2.4556,-2.464,-2.4706,-2.4774,-2.4815,-2.4812,-2.4856,-2.4819,-2.4926,-2.4821,-2.4969,-2.4876,-2.4918,-2.4928,-2.4935,-2.4946,-2.4829,-2.5015,-2.5322,-2.5355,-2.4953,-2.4949,-2.4946,0,-2.4449,-2.4573,-2.47,-2.4727,-2.4766,-2.4827,-2.4846,-2.4881,-2.4927,-2.4984,-2.5013,-2.5082,-2.5121,-2.5176,-2.5158,-2.5083,-2.531,-2.5203,-2.5311,-2.5312,-2.5364,-2.5361,-2.5683,-2.5388,-2.5387,-2.5387,-2.5386,0,-2.4698,-2.4815,-2.4791,-2.487,-2.4999,-2.4967,-2.5096,-2.5107,-2.5138,-2.5218,-2.5163,-2.524,-2.5211,-2.5286,-2.5272,-2.5397,-2.5414,-2.5415,-2.5411,-2.5422,-2.5422,-2.545,-2.5435,-2.5395,-2.5393,-2.5391,-2.539,0,-2.4945,-2.4934,-2.5069,-2.5094,-2.5103,-2.5198,-2.522,-2.5294,-2.5291,-2.5393,-2.5416,-2.5413,-2.5498,-2.5485,-2.558,-2.557,-2.5727,-2.5704,-2.5713,-2.5709,-2.5818,-2.5808,-2.6171,-2.6217,-2.589,-2.5893,-2.5896,0,-2.5106,-2.5194,-2.5229,-2.5278,-2.5301,-2.5382,-2.5428,-2.54,-2.5451,-2.5504,-2.5572,-2.5652,-2.5714,-2.5853,-2.586,-2.5933,-2.5912,-2.6034,-2.5922,-2.593,-2.5915,-2.5911,-2.592,-2.6056,-2.606,-2.6063,-2.6066,0,-2.5392,-2.5382,-2.545,-2.5518,-2.5575,-2.5627,-2.5673,-2.5717,-2.5693,-2.5753,-2.5839,-2.5887,-2.5983,-2.6064,-2.6131,-2.6151,-2.6106,-2.61,-2.6129,-2.6142,-2.6145,-2.6146,-2.5775,-2.6093,-2.609,-2.6088,-2.6086,-2.6085,-2.5602,-2.5677,-2.5713,-2.5792,-2.5824,-2.5868,-2.5939,-2.5946,-2.6017,-2.6093,-2.6071,-2.617,-2.6208,-2.6294,-2.6321,-2.6397,-2.6352,-2.6394,-2.6405,-2.6416,-2.643,-2.6131,-2.6409,-2.6408,-2.6408,-2.6407,-2.6407,0,-2.5886,-2.5906,-2.5978,-2.6045,-2.6107,-2.6056,-2.6105,-2.6161,-2.6247,-2.6287,-2.6349,-2.6448,-2.6526,-2.6539,-2.6612,-2.6671,-2.6652,-2.6692,-2.6688,-2.6694,-2.6465,-2.6433,-2.6706,-2.6706,-2.6706,-2.6706,-2.6706,-2.6706,-2.6042,-2.6167,-2.6161,-2.6302,-2.6321,-2.6416,-2.6448,-2.6489,-2.652,-2.6633,-2.6697,-2.6705,-2.6734,-2.6809,-2.6878,-2.688,-2.691,-2.6959,-2.6953,-2.6739,-2.671,-2.6681,-2.6651,-2.6965,-2.6965,-2.7174,-2.7176,-2.7178]},{"header":{"parameterUnit":"m.s-1","parameterCategory":1,"la1":30.2991,"la2":30.254,"lo1":-89.0895,"lo2":-89.0444,"dy":0.0017,"dx":0.0017,"nx":28,"ny":28,"refTime":"2023-09-17T09:00:00:Z","depth":0,"parameterNumber":3,"parameterNumberName":"V-component_of_WINDS"},"data":[0,0,0,0,0,0,0,0,0,0,0,0,0,0,0,0,0,0,0,0,0,0,0,0,0,0,0,0,0,0,0,0,0,0,0,0,0,0,0,0,0,0,0,0,0,0,0,0,0,0,0,0,0,0,0,0,0,0,-2.851,-2.8511,0,-2.8539,-2.854,-2.854,-2.8494,-2.8492,-2.8491,-2.8489,-2.8518,-2.852,-2.8522,0,0,0,0,0,0,0,0,0,0,0,0,0,-2.8413,-2.8415,-2.851,-2.8511,-2.8511,-2.8539,-2.854,-2.854,-2.8494,-2.8492,-2.849,-2.8488,-2.8517,-2.8519,-2.8522,0,0,0,0,0,0,0,0,0,0,0,0,0,-2.845,-2.8416,-2.851,-2.8492,-2.849,-2.8539,-2.854,-2.854,-2.8495,-2.8492,-2.849,-2.8488,-2.8516,-2.8519,-2.8523,-2.8591,0,0,-2.8533,-2.8534,0,0,0,0,0,0,0,0,-2.8448,-2.8454,-2.8494,-2.8493,-2.8491,-2.8511,-2.8516,-2.8557,-2.8495,-2.8493,-2.8489,-2.8486,-2.8517,-2.852,-2.8531,-2.8592,-2.8593,-2.8533,-2.8535,-2.8537,-2.8537,0,0,0,0,0,0,0,-2.8446,-2.8452,-2.8522,-2.8495,-2.8493,-2.8481,-2.8484,-2.8523,-2.8518,-2.8493,-2.849,-2.8494,-2.8516,-2.8528,-2.8531,-2.8594,-2.8533,-2.8536,-2.8538,-2.8539,-2.8711,-2.8714,0,0,0,0,0,0,-2.8446,-2.845,-2.8521,-2.8523,-2.8464,-2.8485,-2.8488,-2.8507,-2.8517,-2.8517,-2.8496,-2.8491,-2.8523,-2.8527,-2.8532,-2.8612,-2.8536,-2.854,-2.8542,-2.8709,-2.8712,-2.8715,0,0,0,0,0,0,-2.8444,-2.8452,-2.852,-2.8486,-2.8493,-2.8489,-2.8511,-2.8509,-2.852,-2.852,-2.8518,-2.8509,-2.8521,-2.8527,-2.8576,-2.8612,-2.8541,-2.8544,-2.8706,-2.871,-2.8713,-2.8772,0,0,0,0,0,0,-2.8441,-2.8452,-2.8478,-2.8487,-2.8495,-2.8564,-2.8513,-2.8511,-2.8526,-2.8521,-2.8531,-2.8531,-2.852,-2.8572,-2.858,-2.8615,-2.8547,-2.8702,-2.8707,-2.8712,-2.8767,-2.8777,-2.8787,0,0,0,0,0,-2.8438,-2.8494,-2.848,-2.8489,-2.8528,-2.8566,-2.8571,-2.8558,-2.8529,-2.8555,-2.8555,-2.8531,-2.8607,-2.8577,-2.8586,-2.8623,-2.87,-2.8706,-2.8712,-2.8763,-2.8775,-2.8786,0,0,0,0,0,0,-2.8489,-2.8494,-2.8479,-2.854,-2.8553,-2.8559,-2.8591,-2.8572,-2.8594,-2.8588,-2.857,-2.8573,-2.8625,-2.8629,-2.8595,-2.8689,-2.8649,-2.8656,-2.8684,-2.8697,-2.8706,-2.8704,-2.855,0,0,0,0,0,-2.8508,-2.8539,-2.8541,-2.8594,-2.8602,-2.8596,-2.8612,-2.86,-2.8613,-2.8618,-2.8621,-2.8634,-2.8661,-2.8679,-2.8704,-2.8767,-2.8768,-2.8797,-2.8807,-2.8815,-2.8822,-2.8855,-2.8867,-2.8733,-2.8733,-2.8733,0,0,-2.8546,-2.8553,-2.8573,-2.8605,-2.8614,-2.8646,-2.8601,-2.8636,-2.8659,-2.8624,-2.867,-2.8673,-2.8686,-2.8743,-2.8767,-2.8747,-2.8859,-2.8822,-2.8829,-2.8831,-2.8862,-2.8875,-2.8886,-2.8737,-2.8737,-2.8736,0,0,-2.8632,-2.864,-2.8685,-2.8695,-2.8709,-2.8705,-2.8715,-2.8724,-2.8724,-2.8771,-2.8744,-2.8771,-2.8818,-2.8829,-2.884,-2.8929,-2.8907,-2.8938,-2.8989,-2.9021,-2.9032,-2.9041,-2.9072,-2.9083,-2.8945,-2.8945,-2.8945,0,-2.8677,-2.8725,-2.871,-2.8748,-2.8762,-2.8731,-2.8776,-2.8786,-2.8808,-2.8818,-2.8795,-2.8853,-2.886,-2.8918,-2.8939,-2.895,-2.8961,-2.8936,-2.9031,-2.904,-2.9049,-2.9078,-2.909,-2.8948,-2.8948,-2.8948,-2.8947,0,-2.8779,-2.8813,-2.8847,-2.8869,-2.8887,-2.8928,-2.8919,-2.8939,-2.8926,-2.8923,-2.897,-2.8978,-2.9003,-2.9016,-2.9004,-2.9072,-2.9059,-2.9034,-2.8993,-2.9065,-2.9093,-2.9104,-2.8953,-2.8952,-2.8951,-2.895,0,0,-2.8898,-2.8911,-2.8924,-2.8933,-2.8947,-2.8972,-2.9011,-2.9036,-2.9053,-2.9069,-2.9101,-2.9141,-2.9118,-2.9131,-2.9119,-2.9148,-2.9217,-2.9119,-2.9119,-2.9136,-2.9292,-2.931,-2.9323,-2.9203,-2.9205,-2.9207,-2.929,0,-2.8983,-2.9051,-2.9039,-2.9104,-2.9134,-2.9106,-2.914,-2.9151,-2.915,-2.9175,-2.9173,-2.9201,-2.9169,-2.9177,-2.9204,-2.9203,-2.9248,-2.9197,-2.9231,-2.9233,-2.9228,-2.9337,-2.9357,-2.9435,-2.9301,-2.9303,-2.9304,0,-2.9091,-2.9111,-2.918,-2.9188,-2.92,-2.9231,-2.9252,-2.9276,-2.9289,-2.9286,-2.93,-2.9283,-2.9321,-2.9281,-2.9332,-2.9298,-2.9311,-2.9313,-2.9316,-2.9318,-2.9272,-2.9341,-2.946,-2.9471,-2.9321,-2.9319,-2.9318,0,-2.9169,-2.9213,-2.926,-2.9269,-2.928,-2.9302,-2.9307,-2.9317,-2.9333,-2.9351,-2.9361,-2.9384,-2.9397,-2.9414,-2.9404,-2.9375,-2.9457,-2.9416,-2.9455,-2.9456,-2.9473,-2.9472,-2.9595,-2.9484,-2.9483,-2.9483,-2.9483,0,-2.9264,-2.9307,-2.9295,-2.9324,-2.9371,-2.9356,-2.9403,-2.9405,-2.9414,-2.9442,-2.9419,-2.9445,-2.943,-2.9456,-2.9448,-2.9491,-2.9497,-2.9495,-2.9493,-2.9497,-2.9497,-2.9505,-2.9499,-2.9486,-2.9486,-2.9485,-2.9484,0,-2.936,-2.9354,-2.9402,-2.9409,-2.9411,-2.9445,-2.945,-2.9477,-2.9474,-2.9509,-2.9517,-2.9512,-2.954,-2.9532,-2.9563,-2.9557,-2.9612,-2.9603,-2.9608,-2.9606,-2.9645,-2.9641,-2.9776,-2.9793,-2.9672,-2.9673,-2.9674,0,-2.9421,-2.9453,-2.9463,-2.948,-2.9487,-2.9515,-2.9531,-2.9518,-2.9535,-2.9551,-2.9575,-2.9602,-2.9622,-2.9669,-2.9668,-2.9691,-2.9682,-2.9727,-2.9685,-2.9688,-2.9681,-2.9679,-2.9682,-2.9736,-2.9737,-2.9738,-2.9739,0,-2.9529,-2.9524,-2.9548,-2.9571,-2.959,-2.9607,-2.9622,-2.9638,-2.9625,-2.9646,-2.9675,-2.9691,-2.9722,-2.9748,-2.977,-2.9774,-2.9755,-2.9753,-2.9763,-2.9767,-2.9768,-2.9767,-2.963,-2.9749,-2.9748,-2.9748,-2.9747,-2.9747,-2.9608,-2.9635,-2.9646,-2.9673,-2.9683,-2.9698,-2.9722,-2.9722,-2.9747,-2.9771,-2.9762,-2.9795,-2.9806,-2.9832,-2.984,-2.9865,-2.9847,-2.9862,-2.9866,-2.987,-2.9874,-2.9765,-2.9869,-2.9869,-2.9868,-2.9868,-2.9868,0,-2.9714,-2.972,-2.9745,-2.9767,-2.9788,-2.9768,-2.9783,-2.9802,-2.9832,-2.9843,-2.9864,-2.9897,-2.9922,-2.9923,-2.9947,-2.9967,-2.9958,-2.9973,-2.9971,-2.9973,-2.9889,-2.9877,-2.998,-2.998,-2.998,-2.998,-2.998,-2.998,-2.9772,-2.9816,-2.9813,-2.9862,-2.9867,-2.9899,-2.991,-2.9923,-2.9932,-2.997,-2.9991,-2.9991,-2.9999,-3.0022,-3.0045,-3.0044,-3.0053,-3.0072,-3.0068,-2.999,-2.9979,-2.9968,-2.9957,-3.0074,-3.0074,-3.0149,-3.015,-3.015]}]]